Hourly Data Report for November 22, 2005

TORONTO CITY
ONTARIO

43°40'00.000" N
79°24'00.000" W
112.50 m
6158355
71508
XTO

Download Data

Hourly Data (November 2005)
Hourly Data Report for November 22, 2005
TIME
LST
Temp Definition
°C
Dew Point Definition
°C
Rel Hum Definition
%
Precip. Amount Definition
mm

Wind Dir Definition
10's deg

Wind Spd Definition
km/h
Visibility Definition
km
Stn Press Definition
kPa
Hmdx Definition


Wind Chill Definition


Weather Definition


00:00 4.9 3.0 87   LegendMM LegendMM   98.74     LegendNANA
01:00 5.0 2.8 86   LegendMM LegendMM   98.60     LegendNANA
02:00 5.0 2.8 86   LegendMM LegendMM   98.57     LegendNANA
03:00 5.2 2.9 85   LegendMM LegendMM   98.52     LegendNANA
04:00 4.0 1.4 83   LegendMM LegendMM   98.48     LegendNANA
05:00 3.1 -0.1 79   LegendMM LegendMM   98.49     LegendNANA
06:00 2.5 -1.2 77   LegendMM LegendMM   98.57     LegendNANA
07:00 1.6 -2.9 72   LegendMM LegendMM   98.65     LegendNANA
08:00 0.7 -3.5 73   LegendMM LegendMM   98.67     LegendNANA
09:00 0.8 -4.1 70   LegendMM LegendMM   98.68     LegendNANA
10:00 0.7 -5.9 61   LegendMM LegendMM   98.67     LegendNANA
11:00 0.9 -5.5 62   LegendMM LegendMM   98.66     LegendNANA
12:00 -0.2 -7.5 58   LegendMM LegendMM   98.62     LegendNANA
13:00 -0.1 -7.6 57   LegendMM LegendMM   98.56     LegendNANA
14:00 -0.9 -9.1 54   LegendMM LegendMM   98.54     LegendNANA
15:00 -1.0 -8.7 56   LegendMM LegendMM   98.54     LegendNANA
16:00 -2.0 -8.9 59   LegendMM LegendMM   98.62     LegendNANA
17:00 -2.7 -9.2 61   LegendMM LegendMM   98.68     LegendNANA
18:00 -2.9 -9.3 61   LegendMM LegendMM   98.76     LegendNANA
19:00 -3.4 -10.4 58   LegendMM LegendMM   98.82     LegendNANA
20:00 -4.0 -11.6 55   LegendMM LegendMM   98.86     LegendNANA
21:00 -4.8 -12.1 57   LegendMM LegendMM   98.90     LegendNANA
22:00 -5.1 -12.1 58   LegendMM LegendMM   98.92     LegendNANA
23:00 -5.3 -11.7 61   LegendMM LegendMM   98.94     LegendNANA

Notes on Data Quality.

Legend

  • E = Estimated
  • M = Missing
  • NA = Not Available*
  • [empty] = Indicates an unobserved value
Date modified: